Weather History for LFJL - September, 2013

Change the Weather History Date:

Friday, September 27, 2013

  Actual Average (LFSN) Record (LFSN)
Temperature  
Mean Temperature 58 °F -  
Max Temperature 68 °F 63 °F 77 °F (2011)
Min Temperature 48 °F 48 °F 42 °F (2008)
Degree Days  
Heating Degree Days 7    
Growing Degree Days 8 (Base 50)    
Moisture  
Dew Point 52 °F    
Average Humidity 80    
Maximum Humidity 100    
Minimum Humidity 60    
Precipitation  
Precipitation 0.00 in - - ()
Sea Level Pressure  
Sea Level Pressure 29.98 in    
Wind  
Wind Speed 6 mph ()    
Max Wind Speed 16 mph    
Max Gust Speed -    
Visibility 5.1 miles    
Events Fog    
Averages and records for this station are not official NWS values.
T = Trace of Precipitation, MM = Missing Value Source: Averaged Metar Reports

Daily Weather History Graph

Daily Weather History Graph

Search for Another Location

Airport or City:

Trip Planner

Search our weather history database for the weather conditions in past years. The results will help you decide how hot, cold, wet, or windy it might be!

Date:

Astronomy

Sep. 27, 2013 Rise Set
Actual Time 7:28 AM CEST 7:22 PM CEST
Civil Twilight 6:57 AM CEST 7:53 PM CEST
Nautical Twilight 6:20 AM CEST 8:30 PM CEST
Astronomical Twilight 5:42 AM CEST 9:08 PM CEST
Moon No Moon Rise 3:16 PM CEST (9/27)
Length of Visible Light 12h 56m
Length of Day
11h 53m
Waning Gibbous, 48% of the Moon is Illuminated
Sep 27
Waning Gibbous
Oct 5
New
Oct 12
First Quarter
Oct 19
Full
Oct 27
Last Quarter

Hourly Weather History & Observations

Time (CEST) Temp. Dew Point Humidity Pressure Visibility Wind Dir Wind Speed Gust Speed Precip Events Conditions
12:00 AM 59.0 °F 53.6 °F 82% 30.01 in 6.2 mi East 9.2 mph - N/A   Unknown
12:30 AM 57.2 °F 53.6 °F 88% 30.01 in 5.6 mi East 10.4 mph - N/A   Unknown
1:00 AM 57.2 °F 51.8 °F 82% 30.01 in 5.6 mi East 10.4 mph - N/A   Unknown
1:30 AM 55.4 °F 51.8 °F 88% 30.01 in 5.0 mi East 10.4 mph - N/A   Unknown
2:00 AM 55.4 °F 51.8 °F 88% 30.01 in 5.0 mi ENE 5.8 mph - N/A   Unknown
2:30 AM 55.4 °F 51.8 °F 88% 30.01 in 4.3 mi Variable 1.2 mph - N/A   Unknown
3:00 AM 53.6 °F 51.8 °F 94% 30.01 in 3.7 mi NNE 3.5 mph - N/A   Unknown
3:30 AM 53.6 °F 50.0 °F 88% 30.01 in 3.1 mi NNE 6.9 mph - N/A   Mist
4:00 AM 53.6 °F 50.0 °F 88% 30.01 in 3.1 mi NNE 4.6 mph - N/A   Mist
4:30 AM 51.8 °F 50.0 °F 94% 30.01 in - Variable 3.5 mph - N/A   Mist
5:00 AM 51.8 °F 50.0 °F 94% 30.01 in - Variable 2.3 mph - N/A   Mist
5:30 AM 51.8 °F 50.0 °F 94% 30.01 in 0.6 mi NNE 4.6 mph - N/A Fog Fog
6:00 AM 51.8 °F 50.0 °F 94% 30.01 in 0.9 mi North 3.5 mph - N/A   Mist
6:30 AM 50.0 °F 48.2 °F 94% 29.98 in 1.9 mi NNE 3.5 mph - N/A   Mist
7:00 AM 48.2 °F 46.4 °F 93% 30.01 in 0.7 mi North 2.3 mph - N/A   Mist
7:30 AM 50.0 °F 48.2 °F 94% 30.01 in 1.1 mi NNE 3.5 mph - N/A Fog Fog
8:00 AM 48.2 °F 48.2 °F 100% 30.01 in 2.2 mi NNE 2.3 mph - N/A   Mist
8:30 AM 50.0 °F 48.2 °F 94% 30.01 in - North 1.2 mph - N/A   Mist
9:00 AM 51.8 °F 50.0 °F 94% 30.01 in - North 3.5 mph - N/A   Mist
9:30 AM 53.6 °F 50.0 °F 88% 30.01 in 3.1 mi NNE 3.5 mph - N/A   Mist
10:00 AM 55.4 °F 51.8 °F 88% 30.01 in 6.2 mi ENE 6.9 mph - N/A   Unknown
10:30 AM 57.2 °F 51.8 °F 82% 30.01 in 6.2 mi ENE 6.9 mph - N/A   Unknown
11:00 AM 59.0 °F 51.8 °F 77% 30.01 in 6.2 mi NE 8.1 mph - N/A   Unknown
11:30 AM 60.8 °F 53.6 °F 77% 30.01 in 6.2 mi ENE 6.9 mph - N/A   Unknown
12:00 PM 62.6 °F 53.6 °F 72% 30.01 in 6.2 mi ENE 6.9 mph - N/A   Unknown
12:30 PM 64.4 °F 55.4 °F 73% 29.98 in 6.2 mi NE 9.2 mph - N/A   Unknown
1:00 PM 64.4 °F 53.6 °F 68% 29.98 in 6.2 mi NE 6.9 mph - N/A   Unknown
1:30 PM 66.2 °F 55.4 °F 68% 29.98 in 6.2 mi ENE 9.2 mph - N/A   Unknown
2:00 PM 66.2 °F 53.6 °F 64% 29.98 in 6.2 mi East 9.2 mph - N/A   Unknown
2:30 PM 68.0 °F 55.4 °F 64% 29.98 in 6.2 mi NE 9.2 mph - N/A   Unknown
3:00 PM 68.0 °F 53.6 °F 60% 29.98 in 6.2 mi NE 6.9 mph - N/A   Unknown
3:30 PM 68.0 °F 53.6 °F 60% 29.95 in 6.2 mi ENE 6.9 mph - N/A   Unknown
4:00 PM 68.0 °F 53.6 °F 60% 29.95 in 6.2 mi ENE 8.1 mph - N/A   Unknown
4:30 PM 68.0 °F 53.6 °F 60% 29.95 in 6.2 mi East 6.9 mph - N/A   Partly Cloudy
5:00 PM 68.0 °F 53.6 °F 60% 29.95 in 6.2 mi East 6.9 mph - N/A   Unknown
5:30 PM 68.0 °F 53.6 °F 60% 29.95 in 6.2 mi ENE 8.1 mph - N/A   Unknown
6:00 PM 66.2 °F 53.6 °F 64% 29.95 in 6.2 mi ENE 8.1 mph - N/A   Unknown
6:30 PM 66.2 °F 53.6 °F 64% 29.95 in 6.2 mi ENE 9.2 mph - N/A   Unknown
7:00 PM 64.4 °F 53.6 °F 68% 29.95 in 6.2 mi ENE 8.1 mph - N/A   Unknown
7:30 PM 60.8 °F 53.6 °F 77% 29.95 in 6.2 mi ENE 5.8 mph - N/A   Unknown
8:00 PM 60.8 °F 53.6 °F 77% 29.95 in 6.2 mi ENE 9.2 mph - N/A   Unknown
8:30 PM 60.8 °F 53.6 °F 77% 29.95 in 6.2 mi NE 8.1 mph - N/A   Unknown
9:00 PM 59.0 °F 53.6 °F 82% 29.95 in 6.2 mi ENE 10.4 mph - N/A   Unknown
9:30 PM 59.0 °F 51.8 °F 77% 29.95 in 6.2 mi ENE 12.7 mph - N/A   Unknown
10:00 PM 59.0 °F 51.8 °F 77% 29.95 in 6.2 mi ENE 12.7 mph - N/A   Unknown
10:30 PM 57.2 °F 51.8 °F 82% 29.95 in 6.2 mi East 12.7 mph - N/A   Unknown
11:00 PM 57.2 °F 50.0 °F 77% 29.95 in 6.2 mi East 13.8 mph - N/A   Unknown
11:30 PM 55.4 °F 50.0 °F 82% 29.95 in 6.2 mi East 16.1 mph - N/A   Unknown